Simultaneous Nadir Overpasses (SNOs) Predictions

Prediction of SNOs between AQUA and GOES-15 Satellite Orbit:

Table of predicted SNOs for the next 14.0 days since TLE Epoch: 9/16/2016
Index Date Time (AQUA) AQUA Lat,Lon GOES-15 Lat,Lon Distance(km) Time Diff (sec)
1 09/17/2016 10:25:16 -0.28,-132.58 0.32,-135.48 329.75 80
2 09/17/2016 22:46:40 -0.81,-137.77 -0.31,-135.45 263.54 80
3 09/19/2016 22:34:28 -0.17,-134.81 -0.31,-135.45 72.57 80
4 09/21/2016 22:22:16 0.48,-131.86 -0.31,-135.44 408.01 80
5 09/22/2016 10:43:31 0.65,-137.01 0.30,-135.47 175.83 80
6 09/24/2016 10:31:19 0.00,-134.05 0.30,-135.45 158.71 80
7 09/24/2016 22:52:42 -1.09,-139.25 -0.28,-135.41 436.24 80
8 09/26/2016 10:19:07 -0.65,-131.10 0.29,-135.43 492.94 80
9 09/26/2016 22:40:29 -0.49,-136.28 -0.28,-135.39 101.97 80
10 09/28/2016 22:28:17 0.17,-133.33 -0.28,-135.37 232.20 80
11 09/29/2016 10:49:33 0.89,-138.49 0.26,-135.40 350.91 80




NCC Satellite Simultaneous Nadir Overpasses (SNOs) Prediction Service
